Location: Newark
(40.9833°N, 0.0333°W)
Time: 08:11:24
(UTC+00:00)

OTV 5 (USA 277) - Pass Details

Date: 21 October 2019
Orbit: 310 x 324 km, 54.5° (Epoch: 17 October)

Event Time Altitude Azimuth Distance (km) Brightness Sun altitude
Exits shadow 05:19:48 20° 251° (WSW) 821 ? -11.6°
Maximum altitude 05:20:26 22° 230° (SW) 771 ? -11.5°
Drops below altitude 10° 05:22:38 10° 176° (S) 1,223 ? -11.1°
Sets 05:24:49 0° 160° (SSE) 2,047 ? -10.7°
